Powrót do katalogu

FENGYUN 1C DEB

AktywnySSO
NORAD 30442·DEBRIS·🇨🇳 China

Wystrzelony May 10, 1999 z Taiyuan Satellite Launch Center

Loading…

Następne Przeloty (najbliższe 24 godziny)

TLE

ŚwieżeSource: Space-Track

Epoka: Sep 13, 2026, 12:22 UTC

1 30442U 99025AFD 26256.51535233  .00003270  00000-0  12376-2 0  9999
2 30442  98.8673   0.1276 0054540 206.4532 153.3864 14.31078502 10880

Śledź FENGYUN 1C DEB w czasie rzeczywistym z AllMySat

Download on the App Store